Home   Weather   40°55'N, 72°41'W   Past weeks
Flag for USA

Past Weather in 40°55'N, 72°41'W, USA — Yesterday and Last 2 Weeks

Now
66 °F

Mostly cloudy.


Feels Like: 66 °F
Forecast: 64 / 45 °F
Wind: 14 mph from Southeast

Location: Tweed-New Haven Airport

Current Time: Oct 16, 2019 at 1:01:00 pm

Latest Report: Oct 16, 2019 at 11:53 am


Visibility: 10 mi

Pressure: 29.89 "Hg

Humidity: 61%

Dew Point: 52 °F

Location of 40°55'N, 72°41'WLocation

Past Weather in 40°55'N, 72°41'W — Graph

°F

40°55'N, 72°41'W Temperature Yesterday

Maximum temperature yesterday: 63 °F (at 12:53 pm)
Minimum temperature yesterday: 44 °F (at 6:53 am)
Average temperature yesterday: 55 °F

High & Low Weather Summary for the Past Weeks

 TemperatureHumidityPressure
High89 °F (Oct 2, 2:53 pm)93% (Oct 3, 5:53 pm)30.47 "Hg (Oct 3, 5:53 pm)
Low41 °F (Oct 5, 4:53 am)35% (Oct 15, 11:53 am)29.73 "Hg (Oct 2, 2:53 pm)
Average61 °F71%30.11 "Hg
* Reported Oct 1 11:53 am — Oct 16 11:53 am, 40°55'N, 72°41'W. Weather by CustomWeather, © 2019

Note: Actual official high and low records may vary slightly from our data, if they occured in-between our weather recording intervals... More about our weather records

Advertising

40°55'N, 72°41'W Weather History for the Previous 24 Hours

Scroll right to see more
 ConditionsComfort  
Time TempWeatherWind HumidityBarometerVisibility
11:53 am
Wed, Oct 16
66 °FMostly cloudy.14 mph61%29.89 "Hg10 mi
10:53 am65 °FPartly sunny.13 mph59%29.93 "Hg10 mi
9:53 am63 °FPartly sunny.9 mph63%29.95 "Hg10 mi
8:53 am61 °FOvercast.8 mph65%29.98 "Hg10 mi
7:53 am57 °FSunny.9 mph72%30.00 "Hg10 mi
6:53 am44 °FClear.No wind93%30.03 "Hg10 mi
5:53 am43 °FClear.No wind89%30.03 "Hg10 mi
4:53 am42 °FClear.No wind89%30.05 "Hg10 mi
3:53 am44 °FClear.No wind89%30.05 "Hg8 mi
2:53 am44 °FClear.No wind89%30.08 "Hg10 mi
1:53 am44 °FClear.3 mph89%30.09 "Hg10 mi
12:53 am45 °FClear.No wind90%30.09 "Hg10 mi
11:53 pm
Tue, Oct 15
46 °FClear.No wind86%30.09 "Hg10 mi
10:53 pm47 °FClear.5 mph83%30.10 "Hg10 mi
9:53 pm47 °FClear.No wind83%30.11 "Hg10 mi
8:53 pm49 °FClear.No wind80%30.11 "Hg10 mi
7:53 pm50 °FClear.No wind74%30.10 "Hg10 mi
6:53 pm60 °FClear.3 mph47%30.09 "Hg10 mi
5:53 pm60 °FScattered clouds.7 mph47%30.08 "Hg10 mi
4:53 pm62 °FScattered clouds.9 mph41%30.09 "Hg10 mi
3:53 pm63 °FScattered clouds.8 mph41%30.10 "Hg10 mi
2:53 pm63 °FScattered clouds.8 mph40%30.11 "Hg10 mi
1:53 pm63 °FSunny.5 mph37%30.12 "Hg10 mi
Weather by CustomWeather, © 2019

See weather overview